This is the latest recevied weather packets stored in our database for station/object DL2ARH-7. If no packets are shown the sender has not sent any weather packets the latest 10 day(s).
| Time | Temp. | Humidity | Pressure | Rain* | Wind** | Luminosity | Snow |
|---|---|---|---|---|---|---|---|
| 1787767698 | 16.67° C | 88% | 1018.5 hPa | 0 mm | - | - | - |
| 1787767631 | 42.22° C | 87% | 1018.5 hPa | 0 mm | - | - | - |
| 1787767564 | 42.22° C | 87% | 1018.5 hPa | 0 mm | - | - | - |
| 1787767366 | 16.67° C | 88% | 1018.4 hPa | 0 mm | - | - | - |
| 1787767299 | 16.67° C | 88% | 1018.4 hPa | 0 mm | - | - | - |
| 1787767232 | 17.22° C | 88% | 1018.4 hPa | 0 mm | - | - | - |
| 1787767165 | 16.67° C | 88% | 1018.4 hPa | 0 mm | - | - | - |
| 1787766967 | 16.67° C | 88% | 1018.3 hPa | 0 mm | - | - | - |
| 1787766899 | 16.67° C | 87% | 1018.4 hPa | 0 mm | - | - | - |
| 1787766767 | 17.22° C | 87% | 1018.3 hPa | 0 mm | - | - | - |
| 1787766701 | 17.22° C | 87% | 1018.4 hPa | 0 mm | - | - | - |
| 1787766501 | 16.67° C | 87% | 1018.3 hPa | 0 mm | - | - | - |
| 1787766434 | 17.22° C | 87% | 1018.4 hPa | 0 mm | - | - | - |
| 1787766235 | 17.22° C | 87% | 1018.4 hPa | 0 mm | - | - | - |
| 1787766168 | 17.22° C | 87% | 1018.4 hPa | 0 mm | - | - | - |
| 1787766102 | 17.22° C | 87% | 1018.4 hPa | 0 mm | - | - | - |
| 1787765969 | 17.22° C | 87% | 1018.4 hPa | 0 mm | - | - | - |
| 1787765902 | 17.22° C | 87% | 1018.4 hPa | 0 mm | - | - | - |
| 1787765835 | 17.22° C | 87% | 1018.2 hPa | 0 mm | - | - | - |
| 1787765769 | 17.22° C | 87% | 1018.3 hPa | 0 mm | - | - | - |
| 1787765703 | 17.78° C | 87% | 1018.2 hPa | 0 mm | - | - | - |
| 1787765636 | 17.78° C | 86% | 1018.4 hPa | 0 mm | - | - | - |
| 1787765504 | 17.78° C | 86% | 1018.3 hPa | 0 mm | - | - | - |
| 1787765370 | 17.22° C | 86% | 1018.2 hPa | 0 mm | - | - | - |
| 1787765171 | 17.78° C | 86% | 1018.2 hPa | 0 mm | - | - | - |
* Rain latest hour (hover to see other rain measurements)
** Current wind speed in m/s (hover to see current wind gust speed)